Terminal Aerodrome Forecast
Issued by NWS Denver/Boulder, CO

Home | Current Version | Previous Version | Text Only | Print | Product List | Glossary On
Versions: 1 2 3 4 5 6 7 8 9 10 11 12 13 14 15 16 17 18 19 20 21 22 23 24 25 26 27 28 29 30 31 32 33 34 35 36 37 38 39 40 41 42 43 44 45 46 47 48 49 50
000
FTUS45 KBOU 211316 AAA
TAFDEN
TAF AMD
KDEN 211316Z 2113/2218 34010KT P6SM FEW050 BKN060
     FM211500 VRB04KT P6SM FEW060 BKN080
     FM211800 12010KT P6SM SCT040 OVC060 PROB30 2122/2203 -SHRA
      BKN040
     FM220400 15010KT P6SM SCT050 BKN080
     FM221000 20012G20KT P6SM SCT080 BKN140=

USA.gov is the U.S. government's official web portal to all federal, state and local government web resources and services.